Location: Zagreb
(45.8000°N, 16.0000°E)
Time: 07:11:59
(UTC+01:00)

X-37B - Visible Passes

Search period start: 01 December 2022 00:00
Search period end: 11 December 2022 00:00
Orbit: 277 x 277 km, 45.0° (Epoch: 01 November)

Date Brightness Start Highest point End Pass type
(mag) Time Alt. Az. Time Alt. Az. Time Alt. Az.
07 Dec 3.5 18:32:35 10° SW 18:32:37 10° SW 18:32:37 10° SW visible
08 Dec 2.7 17:01:20 10° SSE 17:01:38 10° SSE 17:01:56 10° SE visible
08 Dec 3.4 18:33:02 10° WSW 18:33:21 13° SW 18:33:21 13° SW visible
09 Dec 2.2 17:00:28 10° SSW 17:02:08 16° SSE 17:03:47 10° ESE visible
09 Dec 3.4 18:33:36 10° WSW 18:34:03 14° WSW 18:34:03 14° WSW visible
10 Dec 1.6 17:00:35 10° SW 17:02:41 25° SSE 17:04:40 11° E visible
10 Dec 3.4 18:34:14 10° WSW 18:34:42 14° WSW 18:34:42 14° WSW visible
